| time (UTC) | temp F | wind direction | speed MPH | gust MPH | rain 1hr in | rain 24hr in | rain mn in | humidity % | barometer mb |
| 20260505023027 | 67 | 221 | 7.0 | 12.0 | 0.00 | 0.00 | 0.00 | 51 | 1016.0 |
| 20260505021527 | 67 | 212 | 8.0 | 15.0 | 0.00 | 0.00 | 0.00 | 50 | 1015.7 |
| 20260505020038 | 67 | 228 | 7.0 | 12.0 | 0.00 | 0.00 | 0.00 | 50 | 1015.7 |
| 20260505014526 | 68 | 229 | 9.0 | 14.0 | 0.00 | 0.00 | 0.00 | 49 | 1015.6 |
| 20260505013029 | 68 | 229 | 8.0 | 14.0 | 0.00 | 0.00 | 0.00 | 48 | 1015.5 |
| 20260505011528 | 69 | 222 | 8.0 | 14.0 | 0.00 | 0.00 | 0.00 | 48 | 1015.3 |
| 20260505010028 | 70 | 208 | 7.0 | 10.0 | 0.00 | 0.00 | 0.00 | 48 | 1015.1 |
| 20260505004528 | 70 | 218 | 7.0 | 9.0 | 0.00 | 0.00 | 0.00 | 47 | 1015.1 |
| 20260505003030 | 70 | 219 | 5.0 | 9.0 | 0.00 | 0.00 | 0.00 | 47 | 1015.0 |
| 20260505001528 | 71 | 220 | 6.0 | 11.0 | 0.00 | 0.00 | 0.00 | 46 | 1015.1 |
| 20260505000031 | 71 | 221 | 7.0 | 11.0 | 0.00 | 0.00 | 0.00 | 45 | 1015.1 |
| 20260504234526 | 72 | 237 | 4.0 | 6.0 | 0.00 | 0.00 | 0.00 | 45 | 1014.9 |
| 20260504233028 | 72 | 218 | 5.0 | 8.0 | 0.00 | 0.00 | 0.00 | 45 | 1014.9 |
| 20260504231529 | 73 | 217 | 4.0 | 7.0 | 0.00 | 0.00 | 0.00 | 45 | 1014.7 |
| 20260504230025 | 73 | 234 | 4.0 | 10.0 | 0.00 | 0.00 | 0.00 | 44 | 1014.7 |
| 20260504224534 | 74 | 227 | 5.0 | 10.0 | 0.00 | 0.00 | 0.00 | 44 | 1014.7 |
| 20260504223031 | 74 | 223 | 5.0 | 11.0 | 0.00 | 0.00 | 0.00 | 44 | 1014.7 |
| 20260504221526 | 74 | 227 | 5.0 | 11.0 | 0.00 | 0.00 | 0.00 | 43 | 1014.8 |
| 20260504220028 | 74 | 221 | 5.0 | 14.0 | 0.00 | 0.00 | 0.00 | 43 | 1014.8 |
| 20260504214537 | 74 | 235 | 3.0 | 9.0 | 0.00 | 0.00 | 0.00 | 45 | 1014.8 |
| 20260504213029 | 74 | 223 | 6.0 | 11.0 | 0.00 | 0.00 | 0.00 | 41 | 1014.9 |
| 20260504211529 | 74 | 209 | 8.0 | 12.0 | 0.00 | 0.00 | 0.00 | 40 | 1014.8 |
| 20260504210029 | 74 | 223 | 7.0 | 12.0 | 0.00 | 0.00 | 0.00 | 40 | 1014.7 |
| 20260504204527 | 74 | 219 | 8.0 | 14.0 | 0.00 | 0.00 | 0.00 | 40 | 1014.9 |
| 20260504203031 | 74 | 166 | 8.0 | 15.0 | 0.00 | 0.00 | 0.00 | 39 | 1015.0 |
| 20260504201527 | 74 | 235 | 6.0 | 12.0 | 0.00 | 0.00 | 0.00 | 41 | 1015.1 |
| 20260504200038 | 75 | 246 | 4.0 | 12.0 | 0.00 | 0.00 | 0.00 | 39 | 1015.1 |
| 20260504194528 | 74 | 221 | 8.0 | 14.0 | 0.00 | 0.00 | 0.00 | 38 | 1015.3 |
| 20260504193028 | 74 | 185 | 4.0 | 12.0 | 0.00 | 0.00 | 0.00 | 43 | 1015.4 |
| 20260504191527 | 74 | 196 | 4.0 | 14.0 | 0.00 | 0.00 | 0.00 | 42 | 1015.7 |
| 20260504190028 | 74 | 234 | 5.0 | 10.0 | 0.00 | 0.00 | 0.00 | 42 | 1015.9 |
| 20260504184535 | 73 | 227 | 6.0 | 13.0 | 0.00 | 0.00 | 0.00 | 41 | 1016.1 |
| 20260504183035 | 73 | 173 | 5.0 | 10.0 | 0.00 | 0.00 | 0.00 | 40 | 1016.4 |
| 20260504181531 | 72 | 0 | 3.0 | 10.0 | 0.00 | 0.00 | 0.00 | 41 | 1016.6 |
| 20260504180028 | 72 | 155 | 4.0 | 9.0 | 0.00 | 0.00 | 0.00 | 42 | 1016.7 |
| 20260504174530 | 71 | 164 | 4.0 | 7.0 | 0.00 | 0.00 | 0.00 | 44 | 1016.9 |
| 20260504173029 | 72 | 156 | 1.0 | 4.0 | 0.00 | 0.00 | 0.00 | 41 | 1017.2 |
| 20260504171528 | 71 | 193 | 3.0 | 7.0 | 0.00 | 0.00 | 0.00 | 41 | 1017.1 |
| 20260504081529 | 51 | 261 | 7.0 | 10.0 | 0.00 | 0.00 | 0.00 | 71 | 1017.5 |
| 20260504044529 | 55 | 249 | 7.0 | 11.0 | 0.00 | 0.00 | 0.00 | 61 | 1017.8 |
| 20260504043033 | 55 | 248 | 7.0 | 11.0 | 0.00 | 0.00 | 0.00 | 60 | 1017.8 |
| 20260504041532 | 55 | 262 | 8.0 | 11.0 | 0.00 | 0.00 | 0.00 | 60 | 1018.1 |
| 20260504040028 | 55 | 244 | 7.0 | 11.0 | 0.00 | 0.00 | 0.00 | 60 | 1018.0 |
| 20260504034530 | 56 | 250 | 6.0 | 11.0 | 0.00 | 0.00 | 0.00 | 59 | 1018.1 |
| 20260504033031 | 56 | 261 | 7.0 | 10.0 | 0.00 | 0.00 | 0.00 | 57 | 1018.1 |
| 20260504031528 | 57 | 263 | 7.0 | 10.0 | 0.00 | 0.00 | 0.00 | 55 | 1018.0 |
| 20260504030036 | 58 | 265 | 7.0 | 10.0 | 0.00 | 0.00 | 0.00 | 54 | 1018.0 |
| 20260504024530 | 58 | 273 | 7.0 | 12.0 | 0.00 | 0.00 | 0.00 | 53 | 1017.8 |